Home   Weather   Auckland   Past weeks

Flag for New Zealand Past Weather in Auckland, New Zealand — Yesterday and Last 2 Weeks

Now
55 °F

Passing clouds.


Feels Like: 54 °F
Forecast: 52 / 62 °F
Wind: 7 mph from Southeast

Location: Auckland Airport

Current Time: Sep 28, 2016 at 11:20:26 PM

Latest Report: Sep 28, 2016 at 10:30 PM


Visibility: N/A

Pressure: 29.62 "Hg

Humidity: 94%

Dew Point: 54 °F

Location of AucklandLocation

Past Weather in Auckland — Graph

°F

Auckland Temperature Yesterday

Maximum temperature yesterday: 64 °F (at 12:00 PM)
Minimum temperature yesterday: 55 °F (at 3:30 AM)
Average temperature yesterday: 59 °F

High & Low Weather Summary for the Past Weeks

 TemperatureHumidityPressure
High68 °F (Sep 16, 1:00 PM)100% (Sep 14, 7:00 AM)30.30 "Hg (Sep 14, 7:00 AM)
Low50 °F (Sep 14, 1:30 AM)64% (Sep 14, 1:30 PM)29.56 "Hg (Sep 18, 8:30 AM)
Average58 °F89%29.86 "Hg
* Reported Sep 13 9:00 PM — Sep 28 10:00 PM, Auckland, Weather by CustomWeather, © 2016

Note: Actual official high and low records may vary slightly from our data, if they occured in-between our weather recording intervals... More about our weather records

Advertising

Auckland Weather History for the Previous 24 Hours

Scroll right to see more
 ConditionsComfort  
Time TempWeatherWind HumidityBarometerVisibility
10:00 PM
Wed, Sep 28
55 °FPassing clouds.5 mph94%29.62 "HgN/A
9:30 PM55 °FLight rain. Overcast.2 mph94%29.62 "HgN/A
9:00 PM55 °FSprinkles. Overcast.5 mph94%29.62 "HgN/A
8:30 PM55 °FPassing clouds.3 mph94%29.62 "HgN/A
8:00 PM55 °FLight rain. Passing clouds.7 mph94%29.62 "HgN/A
7:30 PM55 °FLight rain. Overcast.5 mph94%29.62 "HgN/A
7:00 PM55 °FLight rain. Mostly cloudy.7 mph94%29.59 "HgN/A
6:30 PM55 °FLight rain. Overcast.6 mph94%29.59 "HgN/A
6:00 PM55 °FLight rain. Partly sunny.10 mph94%29.59 "HgN/A
5:30 PM54 °FRain. Mostly cloudy.10 mph100%29.59 "Hg4 mi
5:00 PM57 °FStrong thunderstorms. Broken clouds.6 mph94%29.59 "Hg1 mi
4:30 PM59 °FThundershowers. Partly sunny.6 mph88%29.56 "HgN/A
4:00 PM59 °FLight rain. Mostly cloudy.6 mph94%29.59 "HgN/A
3:30 PM59 °FRain showers. Broken clouds.7 mph94%29.59 "Hg3 mi
3:00 PM59 °FPartly sunny.8 mph94%29.59 "HgN/A
2:30 PM61 °FLight rain. Broken clouds.6 mph88%29.59 "HgN/A
2:00 PM59 °FSprinkles. Partly sunny.5 mph94%29.62 "HgN/A
1:30 PM59 °FDrizzle. Overcast.1 mph94%29.62 "HgN/A
1:00 PM59 °FRain showers. Mostly cloudy.3 mph94%29.62 "Hg6 mi
12:30 PM59 °FSprinkles. Broken clouds.8 mph88%29.62 "HgN/A
12:00 PM61 °FSprinkles. Overcast.5 mph83%29.62 "HgN/A
11:30 AM61 °FLight rain. Overcast.7 mph77%29.62 "HgN/A
11:00 AM59 °FOvercast.5 mph82%29.62 "HgN/A
10:30 AM59 °FBroken clouds.6 mph82%29.62 "HgN/A
10:00 AM59 °FMostly cloudy.6 mph82%29.62 "HgN/A
9:30 AM57 °FMore clouds than sun.6 mph88%29.62 "HgN/A
9:00 AM57 °FMostly cloudy.5 mph94%29.62 "HgN/A
8:30 AM57 °FMostly cloudy.6 mph94%29.62 "HgN/A
8:00 AM55 °FOvercast.6 mph100%29.62 "HgN/A
7:30 AM55 °FOvercast.5 mph100%29.59 "HgN/A
7:00 AM55 °FSprinkles. Overcast.3 mph100%29.59 "HgN/A
6:30 AM55 °FDrizzle. Overcast.2 mph100%29.59 "HgN/A
6:00 AM55 °FLight rain. Overcast.3 mph100%29.59 "HgN/A
5:30 AM55 °FSprinkles. Overcast.2 mph100%29.59 "HgN/A
5:00 AM55 °FLight rain. Passing clouds.3 mph100%29.59 "HgN/A
4:30 AM55 °FLight rain. Mostly cloudy.3 mph100%29.59 "HgN/A
4:00 AM57 °FSprinkles. Overcast.2 mph94%29.59 "HgN/A
3:30 AM57 °FDrizzle. Mostly cloudy.3 mph94%29.59 "HgN/A
3:00 AM57 °FMostly cloudy.3 mph94%29.59 "HgN/A
2:30 AM57 °FPassing clouds.2 mph94%29.59 "HgN/A
2:00 AM57 °FMostly cloudy.2 mph94%29.62 "HgN/A
1:30 AM57 °FDrizzle. Mostly cloudy.7 mph94%29.62 "HgN/A
1:00 AM57 °FPassing clouds.6 mph94%29.62 "HgN/A
12:30 AM57 °FPassing clouds.5 mph94%29.62 "HgN/A
12:00 AM57 °FMostly cloudy.2 mph94%29.62 "HgN/A
11:30 PM
Tue, Sep 27
57 °FPassing clouds.2 mph94%29.62 "HgN/A
11:00 PM57 °FPassing clouds.2 mph88%29.62 "HgN/A
Weather by CustomWeather, © 2016

See weather overviewHow to use our weather pages